#timestamp,LO_Frequency,Hit,StdDev 
1602993615.4,286047004.4,N
1602993635.2,286047001.5,N
1602993655.1,286047009.0,Y
1602993656.0,286047009.0,P
1602993675.8,286047000.4,N
1602993695.7,286047002.3,N
1602993715.5,286047004.3,N
1602993735.3,286047007.1,N
1602993755.2,286047009.5,Y
1602993775.0,286047007.0,P
1602993775.9,286047007.0,P
1602993795.8,286047005.2,P
1602993815.6,286047001.6,N
1602993835.4,286047006.4,Y
1602993855.3,286047004.0,P
1602993875.1,286047001.4,N
1602993895.8,286046999.5,N
1602993915.7,286046999.2,N
1602993935.5,286047000.2,N
1602993955.4,286047000.8,N
1602993975.2,286046995.9,N
1602993995.0,286046997.6,N
1602993995.9,286046997.6,N
1602994015.8,286046996.2,N
1602994035.6,286046996.0,N
1602994055.5,286047001.1,N
1602994075.3,286047001.0,N
1602994095.1,286047004.8,N
1602994115.9,286047005.3,N
1602994135.7,286047007.1,N
1602994155.6,286047007.6,N
1602994175.4,286047006.5,N
1602994195.2,286047006.0,N
1602994215.1,286047003.3,N
1602994216.0,286047003.3,N
1602994235.8,286047003.5,N
1602994255.6,286047005.0,N
1602994275.5,286047008.3,N
1602994295.3,286047005.7,N
1602994315.2,286047008.3,N
1602994335.9,286047012.8,Y
1602994355.7,286047006.9,P
1602994375.6,286047001.6,N
1602994395.4,286046998.4,N
1602994415.3,286047006.9,N
1602994435.1,286047003.8,N
1602994436.0,286047003.8,N
1602994455.8,286047000.3,N
1602994475.7,286047000.4,N
1602994495.5,286047002.0,N
1602994515.3,286047003.0,N
1602994535.2,286046999.1,N
1602994555.0,286046995.5,N
1602994555.9,286046995.5,N
1602994575.8,286046998.9,N
1602994595.6,286046998.2,N
1602994615.4,286047001.1,N
1602994635.3,286047001.1,N
1602994655.1,286047007.2,N
1602994675.9,286047000.8,N
1602994695.7,286046997.6,N
1602994715.5,286046997.4,N
1602994735.4,286046998.0,N
1602994755.2,286047000.7,N
1602994775.0,286046998.0,N
1602994775.9,286046998.0,N
1602994795.8,286046998.7,N
1602994815.6,286046993.8,N
1602994835.5,286046990.6,N
1602994855.3,286046995.4,N
1602994875.1,286047000.7,N
1602994895.9,286046997.7,N
1602994915.7,286046992.4,N
1602994935.6,286046992.8,N
1602994955.4,286046990.9,N
1602994975.2,286046984.1,Y
1602994995.1,286046992.2,P
1602994996.0,286046992.2,N
1602995015.8,286046995.6,N
1602995035.7,286046998.7,N
1602995055.5,286047001.2,N
1602995075.3,286047002.6,N
1602995095.2,286047003.2,N
1602995115.9,286047000.3,N
1602995135.7,286047000.1,N
1602995155.6,286046998.2,N
1602995175.4,286046999.4,N
1602995195.3,286047000.7,N
1602995215.1,286046995.2,N
1602995216.0,286046995.2,N
1602995235.8,286046996.3,N
1602995255.7,286046996.4,N
1602995275.5,286046995.9,N
1602995295.3,286046989.1,Y
1602995315.2,286046989.1,P
1602995335.0,286046989.7,N
1602995335.9,286046989.7,N
1602995355.8,286046988.0,Y
1602995375.6,286046995.0,P
1602995395.5,286046999.4,N
1602995415.3,286046997.1,N
1602995435.1,286046994.9,N
1602995455.9,286046999.6,N
1602995475.7,286047000.6,N
1602995495.5,286046998.8,N
1602995515.4,286047000.3,N
1602995535.2,286047005.8,N
1602995555.1,286047010.3,N
1602995556.0,286047010.3,N
1602995575.8,286047004.5,N
1602995595.6,286047002.8,N
1602995615.5,286047005.5,N
1602995635.3,286047010.4,N
1602995655.1,286047010.2,N
1602995675.9,286047013.5,N
1602995695.7,286047009.6,N
1602995715.6,286047007.7,N
1602995735.4,286047009.9,N
1602995755.2,286047007.8,N
1602995775.1,286047012.3,N
1602995795.8,286047007.9,N
1602995815.7,286047017.2,N
1602995835.5,286047017.2,N
1602995855.4,286047015.0,N
1602995875.2,286047007.2,N
1602995895.0,286047005.6,N
1602995895.9,286047005.6,N
1602995915.8,286047009.2,N
1602995935.6,286047012.7,N
1602995955.4,286047011.4,N
1602995975.3,286047009.6,N
1602995995.1,286047007.7,N
1602996015.9,286047010.2,N
1602996035.7,286047018.3,Y
1602996055.5,286047008.0,P
1602996075.4,286047003.2,P
1602996095.2,286047005.7,N
1602996115.0,286047005.8,N
1602996116.0,286047005.8,Y
1602996135.8,286047004.2,P
1602996155.6,286047000.8,N
1602996175.5,286047001.2,N
1602996195.3,286046999.6,N
1602996215.1,286047002.2,N
1602996235.9,286047000.9,N
1602996255.7,286047005.5,N
1602996275.6,286047004.7,N
1602996295.4,286047002.0,N
1602996315.2,286046998.3,N
1602996335.1,286047004.3,N
1602996336.0,286047004.3,N
1602996355.8,286047003.2,N
1602996375.6,286047004.4,N
1602996395.5,286047005.0,N
1602996415.3,286047006.7,Y
1602996435.2,286047002.4,P
1602996455.9,286047005.0,P
1602996475.7,286047003.7,P
1602996495.6,286047002.3,N
1602996515.4,286047000.1,N
1602996535.3,286047004.7,Y
1602996555.1,286047002.9,P
1602996556.0,286047002.9,P
1602996575.8,286047005.6,P
1602996595.7,286047002.9,N
1602996615.5,286047006.7,Y
1602996635.3,286047001.4,P
1602996655.2,286047002.9,N
1602996675.0,286047008.8,P
1602996675.9,286047008.8,Y
1602996695.8,286047006.1,P
1602996715.6,286047011.4,P
1602996765.5,286047004.0,E
1602996775.4,286047002.5,N
1602996795.2,286047001.1,P
1602996815.1,286047002.9,P
1602996816.0,286047002.9,Y
1602996835.8,286047008.6,P
1602996855.6,286047006.4,N
1602996875.5,286047008.9,P
1602996895.3,286047016.6,Y
1602996915.2,286047004.7,P
1602996935.9,286047000.8,N
1602996955.7,286047001.2,N
1602996975.6,286047005.6,N
1602996995.4,286047005.1,N
1602997015.3,286047007.2,Y
1602997035.1,286047004.4,P
1602997036.0,286047004.4,P
1602997055.8,286047008.1,P
1602997075.7,286047010.0,Y
1602997095.5,286047005.7,P
1602997115.3,286047006.7,P
1602997135.2,286047010.0,P
1602997155.0,286047007.7,Y
1602997155.9,286047007.7,P
1602997175.8,286047008.8,P
1602997195.6,286047010.0,P
